Back to catalog

FENGYUN 1C DEB

AliveSSO
NORAD 31383·DEBRIS·🇨🇳 China

Launched May 10, 1999 from Taiyuan Satellite Launch Center

Loading…

Next Passes (next 24 hours)

TLE

FreshSource: Space-Track

Epoch: Sep 14, 2026, 10:14 UTC

1 31383U 99025BSP 26257.42650615  .00000815  00000-0  49620-3 0  9992
2 31383  99.0426 324.2732 0106986 269.3310 153.5638 14.06262163992436

Track FENGYUN 1C DEB in real time with AllMySat

Download on the App Store